Terminal Aerodrome Forecast
Issued by NWS

Home | Current Version | Previous Version | Text Only | Print | Product List | Glossary On
Versions: 1 2 3 4 5 6 7 8 9 10 11 12 13 14
000
FTUS42 KTAE 222325
TAFDHN
TAF
KDHN 222325Z 2300/2324 01006KT P6SM SCT250
     FM230500 06005KT P6SM SCT150
     FM231300 08010KT P6SM FEW025 SCT250=

USA.gov is the U.S. government's official web portal to all federal, state and local government web resources and services.